[[{"header":{"parameterUnit":"m.s-1","parameterCategory":2,"la1":30.2991,"la2":30.254,"lo1":-89.0895,"lo2":-89.0444,"dy":0.0017,"dx":0.0017,"nx":28,"ny":28,"refTime":"2025-01-09T09:00:00:Z","depth":"0","parameterNumber":2,"parameterNumberName":"U-component_of_CURRENTS"},"data":[0,0,0,0,0,0,0,0,0,0,0,0,0,0,0,0,0,0,0,0,0,0,0,0,0,0,0,0,0,0,0,0,0,0,0,0,0,0,0,0,0,0,0,0,0,0,0,0,0,0,0,0,0,0,0,0,0,0,-0.2414,-0.2414,0,-0.2415,-0.2415,-0.2414,-0.2372,-0.2371,-0.237,-0.2369,-0.2322,-0.2321,-0.2321,0,0,0,0,0,0,0,0,0,0,0,0,0,-0.2381,-0.2381,-0.2414,-0.2414,-0.2414,-0.2415,-0.2414,-0.2414,-0.2372,-0.2371,-0.237,-0.2369,-0.2322,-0.2321,-0.2321,0,0,0,0,0,0,0,0,0,0,0,0,0,-0.2388,-0.2381,-0.2414,-0.2395,-0.2393,-0.2415,-0.2414,-0.2414,-0.2372,-0.2371,-0.2369,-0.2368,-0.2322,-0.2321,-0.2321,-0.2345,0,0,-0.2319,-0.2319,0,0,0,0,0,0,0,0,-0.2387,-0.2388,-0.2397,-0.2396,-0.2395,-0.2394,-0.2386,-0.239,-0.2372,-0.2378,-0.2369,-0.2367,-0.2344,-0.2341,-0.2342,-0.2343,-0.2341,-0.2319,-0.2319,-0.2318,-0.2318,0,0,0,0,0,0,0,-0.2387,-0.2388,-0.2412,-0.2398,-0.2396,-0.2388,-0.2387,-0.2386,-0.2366,-0.2377,-0.2375,-0.2379,-0.2342,-0.2343,-0.2341,-0.234,-0.2319,-0.2319,-0.2318,-0.2318,-0.235,-0.2352,0,0,0,0,0,0,-0.2393,-0.2388,-0.2412,-0.2412,-0.239,-0.239,-0.2389,-0.2394,-0.2367,-0.2363,-0.238,-0.2377,-0.2345,-0.2341,-0.2339,-0.2362,-0.2318,-0.2318,-0.2318,-0.2349,-0.2351,-0.2352,0,0,0,0,0,0,-0.2392,-0.2395,-0.2412,-0.2402,-0.2403,-0.2392,-0.2398,-0.2394,-0.2389,-0.237,-0.2364,-0.2377,-0.2343,-0.234,-0.2339,-0.2359,-0.2318,-0.2317,-0.2348,-0.235,-0.2351,-0.241,0,0,0,0,0,0,-0.2391,-0.2395,-0.2396,-0.2402,-0.2404,-0.2429,-0.2399,-0.2395,-0.2395,-0.2391,-0.2366,-0.2361,-0.2342,-0.234,-0.2338,-0.2358,-0.2317,-0.2346,-0.2349,-0.2351,-0.2406,-0.2413,-0.2419,0,0,0,0,0,-0.239,-0.2401,-0.2396,-0.2398,-0.2408,-0.243,-0.243,-0.2416,-0.2396,-0.2403,-0.2385,-0.2361,-0.2353,-0.2341,-0.2338,-0.2358,-0.2345,-0.2348,-0.2351,-0.2403,-0.2412,-0.2419,0,0,0,0,0,0,-0.2385,-0.2398,-0.2392,-0.2405,-0.2418,-0.2423,-0.2426,-0.242,-0.2412,-0.2401,-0.2376,-0.2371,-0.2379,-0.2364,-0.235,-0.2375,-0.2346,-0.2349,-0.2387,-0.2395,-0.2401,-0.2404,-0.2316,0,0,0,0,0,-0.2388,-0.2395,-0.2411,-0.2419,-0.2428,-0.2428,-0.2432,-0.2428,-0.2425,-0.2419,-0.2405,-0.2392,-0.2393,-0.2388,-0.2384,-0.2398,-0.2376,-0.241,-0.2416,-0.2422,-0.2424,-0.2417,-0.2423,-0.2361,-0.2361,-0.2361,0,0,-0.2386,-0.2395,-0.2397,-0.2418,-0.2422,-0.2447,-0.2426,-0.2439,-0.2456,-0.2417,-0.2426,-0.2415,-0.2402,-0.2417,-0.2419,-0.2403,-0.2428,-0.2425,-0.243,-0.2429,-0.2421,-0.2427,-0.2432,-0.2363,-0.2362,-0.2362,0,0,-0.2395,-0.2398,-0.241,-0.243,-0.2447,-0.2456,-0.2463,-0.2474,-0.2473,-0.2489,-0.2467,-0.2468,-0.2464,-0.2463,-0.2461,-0.2504,-0.2465,-0.2502,-0.2535,-0.2529,-0.2534,-0.2538,-0.2513,-0.2514,-0.2503,-0.2503,-0.2504,0,-0.2391,-0.2409,-0.2418,-0.2444,-0.2459,-0.2464,-0.2488,-0.2502,-0.251,-0.2514,-0.2497,-0.25,-0.2489,-0.251,-0.2525,-0.2519,-0.2499,-0.2505,-0.2537,-0.2541,-0.2543,-0.2517,-0.2518,-0.2507,-0.2506,-0.2506,-0.2506,0,-0.2412,-0.2431,-0.2444,-0.2475,-0.2498,-0.2519,-0.2548,-0.2564,-0.2561,-0.2568,-0.2582,-0.2571,-0.2568,-0.2574,-0.2562,-0.2585,-0.2558,-0.2547,-0.2515,-0.2553,-0.2523,-0.2522,-0.2511,-0.251,-0.2509,-0.2508,0,0,-0.2384,-0.2445,-0.2447,-0.2466,-0.2514,-0.2533,-0.2576,-0.2609,-0.2624,-0.2634,-0.2647,-0.266,-0.2643,-0.2641,-0.2628,-0.2628,-0.2635,-0.2599,-0.2597,-0.257,-0.2605,-0.2539,-0.2531,-0.2626,-0.2626,-0.2627,-0.2573,0,-0.2391,-0.2437,-0.2471,-0.2515,-0.2539,-0.2574,-0.2613,-0.2646,-0.2661,-0.268,-0.268,-0.2686,-0.2674,-0.2666,-0.267,-0.2646,-0.2637,-0.2649,-0.2575,-0.2572,-0.2506,-0.253,-0.2455,-0.2397,-0.2572,-0.2572,-0.2572,0,-0.239,-0.2424,-0.2466,-0.2528,-0.2542,-0.2572,-0.2621,-0.2657,-0.2699,-0.271,-0.2723,-0.2719,-0.2731,-0.2706,-0.2687,-0.2693,-0.2653,-0.263,-0.2627,-0.2544,-0.2506,-0.2389,-0.2389,-0.2385,-0.257,-0.2571,-0.2571,0,-0.2343,-0.2414,-0.2441,-0.2464,-0.2541,-0.2563,-0.2599,-0.2653,-0.2681,-0.2719,-0.2733,-0.2747,-0.2739,-0.2718,-0.2676,-0.2679,-0.2636,-0.2632,-0.2533,-0.2527,-0.2438,-0.2423,-0.2421,-0.2607,-0.2607,-0.2607,-0.2607,0,-0.2324,-0.2344,-0.2419,-0.2433,-0.2464,-0.2531,-0.2565,-0.2606,-0.2665,-0.2688,-0.2732,-0.2741,-0.2741,-0.2719,-0.2682,-0.2602,-0.2637,-0.2538,-0.2513,-0.2455,-0.2443,-0.2413,-0.2426,-0.2605,-0.2605,-0.2606,-0.2606,0,-0.2255,-0.2309,-0.234,-0.2418,-0.2439,-0.2455,-0.2535,-0.2558,-0.2629,-0.266,-0.2671,-0.2727,-0.27,-0.2681,-0.2635,-0.2591,-0.2486,-0.2488,-0.2411,-0.2377,-0.2283,-0.2301,-0.2229,-0.2163,-0.2377,-0.2375,-0.2374,0,-0.222,-0.2229,-0.2301,-0.2313,-0.2342,-0.2386,-0.2413,-0.2511,-0.2543,-0.2639,-0.2641,-0.2653,-0.2629,-0.2553,-0.2489,-0.2404,-0.2393,-0.2281,-0.228,-0.2267,-0.227,-0.2269,-0.2218,-0.2182,-0.2179,-0.2176,-0.2174,0,-0.2141,-0.2165,-0.2188,-0.2218,-0.2244,-0.2283,-0.2335,-0.2364,-0.2472,-0.2506,-0.2538,-0.2533,-0.2494,-0.2394,-0.2304,-0.2241,-0.2233,-0.2225,-0.2238,-0.2138,-0.211,-0.2036,-0.2224,-0.2152,-0.2154,-0.2156,-0.2157,-0.2158,-0.206,-0.2056,-0.2085,-0.2099,-0.2131,-0.2153,-0.2144,-0.2219,-0.225,-0.2286,-0.2371,-0.235,-0.2319,-0.219,-0.2131,-0.2031,-0.2054,-0.198,-0.2008,-0.2011,-0.1937,-0.2067,-0.1954,-0.1955,-0.1956,-0.1956,-0.1957,0,-0.1949,-0.1955,-0.1965,-0.1981,-0.1964,-0.2024,-0.2062,-0.2035,-0.2023,-0.2104,-0.211,-0.2133,-0.2036,-0.2023,-0.1943,-0.1858,-0.1804,-0.1812,-0.1815,-0.1774,-0.1907,-0.1891,-0.1727,-0.1727,-0.1727,-0.1727,-0.1727,-0.1727,-0.1892,-0.1855,-0.1863,-0.1797,-0.1805,-0.1741,-0.173,-0.1713,-0.1741,-0.1748,-0.1809,-0.1904,-0.1923,-0.2014,-0.1905,-0.1805,-0.1751,-0.1686,-0.1694,-0.1833,-0.1852,-0.187,-0.1859,-0.1691,-0.1691,-0.1504,-0.1502,-0.1502]},{"header":{"parameterUnit":"m.s-1","parameterCategory":2,"la1":30.2991,"la2":30.254,"lo1":-89.0895,"lo2":-89.0444,"dy":0.0017,"dx":0.0017,"nx":28,"ny":28,"refTime":"2025-01-09T09:00:00:Z","depth":"0","parameterNumber":3,"parameterNumberName":"V-component_of_CURRENTS"},"data":[0,0,0,0,0,0,0,0,0,0,0,0,0,0,0,0,0,0,0,0,0,0,0,0,0,0,0,0,0,0,0,0,0,0,0,0,0,0,0,0,0,0,0,0,0,0,0,0,0,0,0,0,0,0,0,0,0,0,-0.0325,-0.0324,0,-0.0254,-0.0253,-0.0252,-0.0204,-0.0204,-0.0203,-0.0203,-0.0104,-0.0102,-0.0099,0,0,0,0,0,0,0,0,0,0,0,0,0,-0.0375,-0.0374,-0.0325,-0.0324,-0.0323,-0.0254,-0.0253,-0.0252,-0.0204,-0.0204,-0.0203,-0.0203,-0.0105,-0.0102,-0.0099,0,0,0,0,0,0,0,0,0,0,0,0,0,-0.0333,-0.0374,-0.0325,-0.0292,-0.0288,-0.0254,-0.0253,-0.0251,-0.0204,-0.0204,-0.0203,-0.0203,-0.0106,-0.0102,-0.0099,-0.0085,0,0,-0.0088,-0.0086,0,0,0,0,0,0,0,0,-0.0335,-0.0331,-0.0297,-0.0294,-0.029,-0.0238,-0.0234,-0.0194,-0.0204,-0.0235,-0.0203,-0.0203,-0.0147,-0.014,-0.0127,-0.008,-0.0076,-0.0088,-0.0085,-0.0084,-0.0083,0,0,0,0,0,0,0,-0.0338,-0.0333,-0.0296,-0.0297,-0.0292,-0.0265,-0.0259,-0.0226,-0.0193,-0.0232,-0.0229,-0.0222,-0.0145,-0.013,-0.0124,-0.0074,-0.0088,-0.0084,-0.0082,-0.0081,0.0002,0.0002,0,0,0,0,0,0,-0.0351,-0.0336,-0.0298,-0.0294,-0.0313,-0.0265,-0.0258,-0.0254,-0.0194,-0.0185,-0.0223,-0.022,-0.0137,-0.0128,-0.012,-0.01,-0.0084,-0.008,-0.0078,0.0002,0.0002,0.0002,0,0,0,0,0,0,-0.0353,-0.0349,-0.0301,-0.0314,-0.0306,-0.0265,-0.0261,-0.0253,-0.0239,-0.0187,-0.0177,-0.0217,-0.0136,-0.0125,-0.0092,-0.0096,-0.0079,-0.0076,0.0002,0.0002,0.0002,-0.0059,0,0,0,0,0,0,-0.0355,-0.035,-0.0353,-0.0315,-0.0306,-0.0289,-0.0261,-0.0252,-0.0236,-0.0232,-0.0179,-0.0169,-0.0135,-0.0098,-0.0089,-0.0091,-0.0073,0.0002,0.0002,0.0002,-0.0057,-0.0061,-0.0065,0,0,0,0,0,-0.0357,-0.0367,-0.0354,-0.0349,-0.0311,-0.0289,-0.0283,-0.0251,-0.0237,-0.0236,-0.0196,-0.0171,-0.0091,-0.0095,-0.0084,-0.0085,0.0002,0.0002,0.0002,-0.0056,-0.0061,-0.0065,0,0,0,0,0,0,-0.039,-0.0361,-0.0347,-0.0347,-0.0323,-0.0282,-0.0279,-0.0256,-0.0224,-0.022,-0.017,-0.0158,-0.013,-0.0099,-0.0105,-0.006,-0.0041,-0.0038,-0.0088,-0.0092,-0.0096,-0.0108,-0.007,0,0,0,0,0,-0.04,-0.0399,-0.0366,-0.0366,-0.0357,-0.0319,-0.0306,-0.0285,-0.0252,-0.0238,-0.0199,-0.0157,-0.0121,-0.0101,-0.0066,-0.0042,-0.0002,-0.0035,-0.0038,-0.0042,-0.0044,0.0014,0.0015,0.0002,0.0002,0.0002,0,0,-0.0412,-0.0397,-0.0396,-0.0373,-0.0351,-0.0348,-0.031,-0.0297,-0.029,-0.0232,-0.0211,-0.017,-0.0118,-0.0091,-0.0076,-0.0065,-0.0017,-0.0042,-0.0045,-0.0045,0.0014,0.0015,0.0016,0.0002,0.0002,0.0002,0,0,-0.0443,-0.0424,-0.0437,-0.0422,-0.0398,-0.0372,-0.0373,-0.0334,-0.0313,-0.0288,-0.0244,-0.0204,-0.0154,-0.0113,-0.0087,-0.0089,-0.004,-0.008,-0.0106,-0.0051,-0.005,-0.0048,0.0003,0.001,-0.008,-0.0081,-0.0081,0,-0.0461,-0.0471,-0.0437,-0.0446,-0.0438,-0.0389,-0.04,-0.0372,-0.0327,-0.0306,-0.0292,-0.0204,-0.0163,-0.0118,-0.012,-0.0098,-0.006,-0.0097,-0.0057,-0.0054,-0.0051,0.0001,0.0009,-0.0083,-0.0083,-0.0083,-0.0083,0,-0.0502,-0.0508,-0.0515,-0.0509,-0.0495,-0.0496,-0.0454,-0.0435,-0.0402,-0.0365,-0.0315,-0.0254,-0.02,-0.0181,-0.0152,-0.0112,-0.009,-0.0071,-0.0049,-0.0053,0.0002,0.0011,-0.0088,-0.0087,-0.0086,-0.0085,0,0,-0.0542,-0.0546,-0.0547,-0.0557,-0.0529,-0.0522,-0.0507,-0.0473,-0.0454,-0.0402,-0.037,-0.0306,-0.0262,-0.023,-0.0181,-0.0133,-0.0083,-0.0101,-0.0097,-0.0058,0.0039,0.008,0.0095,-0.0058,-0.0056,-0.0055,0.0068,0,-0.0585,-0.0625,-0.0606,-0.063,-0.0645,-0.0595,-0.0583,-0.0542,-0.049,-0.0445,-0.0368,-0.0321,-0.0283,-0.0256,-0.0203,-0.0108,-0.006,-0.0118,0.0043,0.0048,0.008,0.0107,0.0137,0.0251,0.0078,0.0079,0.0081,0,-0.0631,-0.0652,-0.0692,-0.0693,-0.0692,-0.0694,-0.0655,-0.0636,-0.0554,-0.0512,-0.0444,-0.0377,-0.0294,-0.0267,-0.0111,-0.015,-0.0067,0.0004,0.0011,0.0078,0.0108,0.023,0.0276,0.0418,0.0096,0.0095,0.0094,0,-0.0682,-0.0707,-0.0743,-0.0745,-0.0738,-0.0738,-0.0723,-0.0658,-0.0636,-0.055,-0.0514,-0.0406,-0.0342,-0.0229,-0.0079,-0.0094,0.0098,0.0099,0.0215,0.0218,0.0291,0.0299,0.0489,0.0201,0.0201,0.0201,0.02,0,-0.0735,-0.0761,-0.0773,-0.0794,-0.0825,-0.0792,-0.0795,-0.0758,-0.0695,-0.066,-0.0555,-0.0493,-0.033,-0.0198,-0.0079,0.011,0.0104,0.022,0.0258,0.027,0.0275,0.0439,0.0485,0.0205,0.0204,0.0203,0.0203,0,-0.0786,-0.0794,-0.0838,-0.085,-0.0855,-0.0875,-0.086,-0.0852,-0.078,-0.0729,-0.0705,-0.0546,-0.0364,-0.0191,0.0017,0.0121,0.0379,0.0349,0.0351,0.0387,0.0607,0.0647,0.0867,0.094,0.0492,0.0494,0.0495,0,-0.0816,-0.0847,-0.0889,-0.092,-0.0929,-0.0949,-0.0959,-0.0907,-0.0887,-0.0753,-0.0729,-0.0543,-0.0395,-0.0066,0.0155,0.0388,0.0482,0.054,0.0512,0.064,0.0713,0.0739,0.0785,0.0587,0.0589,0.0591,0.0593,0,-0.0869,-0.0885,-0.0921,-0.0991,-0.1022,-0.1048,-0.105,-0.1049,-0.0967,-0.0895,-0.0757,-0.0626,-0.0288,0.0008,0.0315,0.0452,0.0644,0.0582,0.0726,0.0817,0.0848,0.0929,0.0479,0.0608,0.0607,0.0606,0.0605,0.0604,-0.0898,-0.0943,-0.0995,-0.1057,-0.1097,-0.113,-0.1143,-0.1116,-0.1072,-0.0943,-0.0801,-0.0575,-0.0135,0.0314,0.0482,0.0839,0.0793,0.0933,0.0975,0.0994,0.1057,0.0637,0.0797,0.0796,0.0796,0.0796,0.0795,0,-0.0933,-0.0986,-0.1055,-0.1125,-0.1179,-0.118,-0.1188,-0.117,-0.1112,-0.0961,-0.0802,-0.0324,0.0114,0.0515,0.1026,0.122,0.1249,0.1316,0.1368,0.1398,0.1052,0.1048,0.1256,0.1256,0.1256,0.1255,0.1255,0.1255,-0.0952,-0.1029,-0.1072,-0.1174,-0.1221,-0.126,-0.126,-0.1206,-0.1102,-0.0846,-0.0582,-0.037,0.0226,0.108,0.1566,0.1607,0.1749,0.1743,0.1819,0.1585,0.1552,0.152,0.1532,0.1837,0.1838,0.2152,0.2155,0.2158]}],[{"header":{"parameterUnit":"m.s-1","parameterCategory":2,"la1":30.2991,"la2":30.254,"lo1":-89.0895,"lo2":-89.0444,"dy":0.0017,"dx":0.0017,"nx":28,"ny":28,"refTime":"2025-01-09T09:00:00:Z","depth":"2","parameterNumber":2,"parameterNumberName":"U-component_of_CURRENTS"},"data":[0,0,0,0,0,0,0,0,0,0,0,0,0,0,0,0,0,0,0,0,0,0,0,0,0,0,0,0,0,0,0,0,0,0,0,0,0,0,0,0,0,0,0,0,0,0,0,0,0,0,0,0,0,0,0,0,0,0,-0.2186,-0.2186,0,-0.2195,-0.2194,-0.2194,-0.2162,-0.2162,-0.2161,-0.216,-0.2124,-0.2124,-0.2124,0,0,0,0,0,0,0,0,0,0,0,0,0,-0.2144,-0.2144,-0.2186,-0.2186,-0.2186,-0.2195,-0.2194,-0.2194,-0.2162,-0.2162,-0.2161,-0.216,-0.2124,-0.2124,-0.2124,0,0,0,0,0,0,0,0,0,0,0,0,0,-0.2156,-0.2145,-0.2186,-0.2173,-0.2172,-0.2195,-0.2194,-0.2194,-0.2163,-0.2162,-0.216,-0.2159,-0.2124,-0.2124,-0.2124,-0.2144,0,0,-0.2123,-0.2122,0,0,0,0,0,0,0,0,-0.2155,-0.2157,-0.2175,-0.2174,-0.2173,-0.2178,-0.2167,-0.2176,-0.2163,-0.2164,-0.216,-0.2159,-0.214,-0.2139,-0.214,-0.2142,-0.2141,-0.2123,-0.2122,-0.2122,-0.2122,0,0,0,0,0,0,0,-0.2155,-0.2157,-0.2187,-0.2175,-0.2174,-0.2168,-0.2168,-0.2168,-0.2156,-0.2164,-0.2162,-0.2167,-0.2139,-0.2141,-0.2139,-0.214,-0.2123,-0.2122,-0.2122,-0.2122,-0.2158,-0.2159,0,0,0,0,0,0,-0.2159,-0.2156,-0.2187,-0.2187,-0.2164,-0.217,-0.217,-0.2176,-0.2157,-0.2154,-0.2168,-0.2165,-0.2142,-0.214,-0.2138,-0.2165,-0.2122,-0.2122,-0.2122,-0.2156,-0.2158,-0.2159,0,0,0,0,0,0,-0.2158,-0.2162,-0.2186,-0.2174,-0.2176,-0.2172,-0.2179,-0.2177,-0.2177,-0.2161,-0.2156,-0.217,-0.2141,-0.2138,-0.2142,-0.2162,-0.2122,-0.2121,-0.2155,-0.2157,-0.2158,-0.2215,0,0,0,0,0,0,-0.2157,-0.2162,-0.2165,-0.2174,-0.2177,-0.2205,-0.218,-0.2178,-0.2183,-0.2179,-0.2161,-0.2157,-0.214,-0.2143,-0.2141,-0.2161,-0.2121,-0.2154,-0.2156,-0.2158,-0.2212,-0.2219,-0.2225,0,0,0,0,0,-0.2156,-0.2168,-0.2165,-0.2169,-0.2183,-0.2206,-0.2208,-0.2199,-0.2184,-0.2192,-0.2178,-0.2157,-0.2155,-0.2143,-0.2142,-0.2162,-0.2152,-0.2155,-0.2158,-0.2209,-0.2218,-0.2225,0,0,0,0,0,0,-0.2151,-0.2167,-0.2163,-0.2179,-0.2194,-0.2202,-0.2208,-0.2204,-0.2201,-0.2194,-0.2172,-0.2168,-0.218,-0.2166,-0.2153,-0.2179,-0.2151,-0.2154,-0.2191,-0.2199,-0.2205,-0.2208,-0.2121,0,0,0,0,0,-0.2154,-0.2164,-0.2182,-0.2193,-0.2202,-0.2206,-0.2213,-0.2212,-0.2212,-0.2209,-0.2199,-0.219,-0.2192,-0.2189,-0.2188,-0.2203,-0.2182,-0.2215,-0.2222,-0.2227,-0.2229,-0.2223,-0.2229,-0.2168,-0.2168,-0.2168,0,0,-0.2154,-0.2164,-0.2169,-0.2192,-0.2199,-0.2224,-0.2206,-0.2223,-0.2241,-0.2207,-0.2221,-0.2213,-0.2202,-0.2218,-0.2222,-0.2206,-0.2234,-0.223,-0.2235,-0.2234,-0.2226,-0.2232,-0.2237,-0.217,-0.2169,-0.2169,0,0,-0.2165,-0.2171,-0.2185,-0.2205,-0.2226,-0.2235,-0.2243,-0.2259,-0.2261,-0.2279,-0.226,-0.2265,-0.2265,-0.2264,-0.2263,-0.2305,-0.2269,-0.2305,-0.2337,-0.2332,-0.2336,-0.234,-0.232,-0.2322,-0.2306,-0.2306,-0.2306,0,-0.2163,-0.2183,-0.2194,-0.2219,-0.2236,-0.2244,-0.2269,-0.2284,-0.2297,-0.2303,-0.2289,-0.2297,-0.2289,-0.2309,-0.2324,-0.2319,-0.2303,-0.2308,-0.2339,-0.2343,-0.2346,-0.2324,-0.2325,-0.2309,-0.2309,-0.2309,-0.2308,0,-0.2186,-0.2206,-0.222,-0.2252,-0.2275,-0.2298,-0.2326,-0.2345,-0.2347,-0.2355,-0.2373,-0.2365,-0.2365,-0.2371,-0.2361,-0.2385,-0.2361,-0.2349,-0.2318,-0.2355,-0.233,-0.233,-0.2314,-0.2313,-0.2312,-0.2311,0,0,-0.2164,-0.2223,-0.2225,-0.2244,-0.2292,-0.2311,-0.2354,-0.2387,-0.2404,-0.2418,-0.2435,-0.245,-0.2437,-0.2436,-0.2425,-0.2425,-0.2435,-0.24,-0.2398,-0.2377,-0.2411,-0.2346,-0.2339,-0.2426,-0.2427,-0.2427,-0.2384,0,-0.2173,-0.2218,-0.225,-0.2293,-0.2318,-0.2352,-0.239,-0.2424,-0.2442,-0.2463,-0.2465,-0.2475,-0.2465,-0.2462,-0.2466,-0.2445,-0.2438,-0.2447,-0.2381,-0.2379,-0.2314,-0.2338,-0.2174,-0.2118,-0.2383,-0.2383,-0.2383,0,-0.2176,-0.2207,-0.2249,-0.2308,-0.2322,-0.2353,-0.2402,-0.2438,-0.2481,-0.2494,-0.2511,-0.251,-0.2524,-0.2502,-0.2486,-0.2491,-0.2457,-0.2436,-0.2433,-0.2351,-0.2314,-0.2124,-0.2107,-0.2383,-0.2383,-0.2383,-0.2383,0,-0.2134,-0.2201,-0.2229,-0.2251,-0.2324,-0.2347,-0.2383,-0.2437,-0.2464,-0.2507,-0.2521,-0.2539,-0.2535,-0.2517,-0.2481,-0.2483,-0.2447,-0.244,-0.2347,-0.2341,-0.2177,-0.2156,-0.2419,-0.2419,-0.2419,-0.2419,-0.2419,0,-0.2119,-0.2139,-0.221,-0.2224,-0.2256,-0.2321,-0.2356,-0.2397,-0.2455,-0.2476,-0.2524,-0.2532,-0.2538,-0.252,-0.2488,-0.2414,-0.2449,-0.2353,-0.2329,-0.2192,-0.2174,-0.2386,-0.2383,-0.2417,-0.2418,-0.2418,-0.2418,0,-0.2056,-0.2108,-0.2139,-0.2213,-0.2234,-0.2252,-0.2329,-0.2351,-0.2423,-0.2451,-0.2464,-0.2521,-0.2499,-0.2487,-0.2447,-0.2405,-0.2352,-0.2311,-0.2146,-0.2104,-0.2249,-0.2249,-0.2211,-0.2209,-0.2206,-0.2205,-0.2203,0,-0.2025,-0.2035,-0.2105,-0.2116,-0.2145,-0.2189,-0.2214,-0.2309,-0.2336,-0.2429,-0.2427,-0.2447,-0.2422,-0.2359,-0.2292,-0.2216,-0.2275,-0.2019,-0.2001,-0.2249,-0.2229,-0.2233,-0.2237,-0.1802,-0.1797,-0.1793,-0.179,0,-0.1952,-0.1977,-0.1998,-0.2026,-0.2052,-0.2086,-0.2135,-0.2157,-0.2258,-0.2289,-0.2316,-0.2312,-0.2276,-0.2132,-0.2054,-0.1988,-0.2027,-0.1939,-0.2228,-0.1889,-0.1862,-0.1843,-0.186,-0.1756,-0.1759,-0.1762,-0.1764,-0.1765,-0.1878,-0.1873,-0.19,-0.1913,-0.1942,-0.1955,-0.1942,-0.2006,-0.2028,-0.2042,-0.213,-0.2067,-0.2049,-0.185,-0.1753,-0.1681,-0.1818,-0.173,-0.1742,-0.1758,-0.1728,-0.1699,-0.1556,-0.1558,-0.156,-0.1561,-0.1563,0,-0.1772,-0.1777,-0.1785,-0.1795,-0.1772,-0.1834,-0.1857,-0.1815,-0.1789,-0.1833,-0.1828,-0.1638,-0.1554,-0.1542,-0.139,-0.136,-0.1346,-0.1293,-0.1277,-0.1311,-0.1342,-0.1292,-0.1003,-0.1002,-0.1,-0.0999,0,0,-0.1717,-0.1679,-0.1682,-0.161,-0.1616,-0.1545,-0.1527,-0.1484,-0.1477,-0.14,-0.1371,-0.148,-0.1509,-0.126,-0.1198,-0.1081,-0.1183,-0.1024,-0.1474,-0.149,-0.1519,-0.1595,-0.1556,0,0,0,0,0]},{"header":{"parameterUnit":"m.s-1","parameterCategory":2,"la1":30.2991,"la2":30.254,"lo1":-89.0895,"lo2":-89.0444,"dy":0.0017,"dx":0.0017,"nx":28,"ny":28,"refTime":"2025-01-09T09:00:00:Z","depth":"2","parameterNumber":3,"parameterNumberName":"V-component_of_CURRENTS"},"data":[0,0,0,0,0,0,0,0,0,0,0,0,0,0,0,0,0,0,0,0,0,0,0,0,0,0,0,0,0,0,0,0,0,0,0,0,0,0,0,0,0,0,0,0,0,0,0,0,0,0,0,0,0,0,0,0,0,0,-0.0296,-0.0295,0,-0.0229,-0.0228,-0.0227,-0.0183,-0.0183,-0.0183,-0.0183,-0.009,-0.0088,-0.0085,0,0,0,0,0,0,0,0,0,0,0,0,0,-0.0343,-0.0343,-0.0296,-0.0295,-0.0294,-0.0229,-0.0228,-0.0227,-0.0183,-0.0183,-0.0183,-0.0182,-0.0091,-0.0088,-0.0085,0,0,0,0,0,0,0,0,0,0,0,0,0,-0.0303,-0.0342,-0.0296,-0.0265,-0.0262,-0.0229,-0.0228,-0.0227,-0.0183,-0.0183,-0.0183,-0.0182,-0.0092,-0.0088,-0.0085,-0.007,0,0,-0.0074,-0.0073,0,0,0,0,0,0,0,0,-0.0306,-0.0302,-0.0271,-0.0267,-0.0264,-0.0215,-0.0211,-0.0173,-0.0183,-0.0212,-0.0183,-0.0182,-0.013,-0.0123,-0.0111,-0.0066,-0.0062,-0.0074,-0.0072,-0.0071,-0.007,0,0,0,0,0,0,0,-0.0309,-0.0304,-0.0269,-0.027,-0.0266,-0.024,-0.0234,-0.0203,-0.0173,-0.021,-0.0207,-0.02,-0.0128,-0.0114,-0.0108,-0.006,-0.0074,-0.0071,-0.0069,-0.0068,0.0011,0.0011,0,0,0,0,0,0,-0.0321,-0.0307,-0.0271,-0.0267,-0.0285,-0.024,-0.0233,-0.023,-0.0173,-0.0165,-0.0201,-0.0199,-0.012,-0.0112,-0.0105,-0.0084,-0.0071,-0.0067,-0.0065,0.0011,0.0011,0.0011,0,0,0,0,0,0,-0.0322,-0.0319,-0.0273,-0.0286,-0.0278,-0.024,-0.0236,-0.0229,-0.0216,-0.0167,-0.0158,-0.0196,-0.012,-0.011,-0.0078,-0.008,-0.0066,-0.0063,0.0011,0.0011,0.0011,-0.0042,0,0,0,0,0,0,-0.0324,-0.032,-0.0323,-0.0287,-0.0278,-0.0261,-0.0236,-0.0228,-0.0213,-0.021,-0.016,-0.0151,-0.0119,-0.0083,-0.0075,-0.0075,-0.006,0.0011,0.0011,0.0011,-0.0041,-0.0044,-0.0047,0,0,0,0,0,-0.0326,-0.0335,-0.0323,-0.0319,-0.0283,-0.0262,-0.0255,-0.0226,-0.0213,-0.0212,-0.0176,-0.0152,-0.0077,-0.0081,-0.007,-0.007,0.0011,0.0011,0.0011,-0.0039,-0.0043,-0.0047,0,0,0,0,0,0,-0.0356,-0.033,-0.0317,-0.0317,-0.0294,-0.0255,-0.0251,-0.0231,-0.0201,-0.0198,-0.0151,-0.0139,-0.0113,-0.0084,-0.009,-0.0046,-0.0029,-0.0027,-0.0071,-0.0074,-0.0078,-0.0089,-0.0057,0,0,0,0,0,-0.0366,-0.0365,-0.0333,-0.0334,-0.0325,-0.0289,-0.0277,-0.0258,-0.0227,-0.0213,-0.0177,-0.0138,-0.0104,-0.0084,-0.0052,-0.0028,0.0008,-0.002,-0.0024,-0.0027,-0.0029,0.0025,0.0026,0.0012,0.0012,0.0012,0,0,-0.0377,-0.0363,-0.0362,-0.034,-0.032,-0.0315,-0.0281,-0.0269,-0.0261,-0.0208,-0.0187,-0.015,-0.0101,-0.0075,-0.006,-0.005,-0.0004,-0.0026,-0.0029,-0.003,0.0025,0.0027,0.0028,0.0012,0.0012,0.0012,0,0,-0.0406,-0.0388,-0.04,-0.0385,-0.0362,-0.0338,-0.0338,-0.0302,-0.0282,-0.0258,-0.0217,-0.018,-0.0132,-0.0093,-0.0068,-0.0068,-0.0024,-0.006,-0.0083,-0.0031,-0.003,-0.0028,0.0017,0.0023,-0.006,-0.006,-0.006,0,-0.0422,-0.0431,-0.0399,-0.0406,-0.0399,-0.0353,-0.0363,-0.0335,-0.0293,-0.0274,-0.0261,-0.0178,-0.0139,-0.0096,-0.0097,-0.0076,-0.0042,-0.0075,-0.0036,-0.0033,-0.0031,0.0015,0.0023,-0.0062,-0.0062,-0.0062,-0.0062,0,-0.0459,-0.0465,-0.047,-0.0463,-0.045,-0.045,-0.041,-0.0392,-0.0362,-0.0327,-0.028,-0.0221,-0.0171,-0.0152,-0.0125,-0.0086,-0.0067,-0.0049,-0.0029,-0.0032,0.0016,0.0025,-0.0066,-0.0065,-0.0064,-0.0064,0,0,-0.0498,-0.0498,-0.05,-0.051,-0.0481,-0.0476,-0.0459,-0.0427,-0.0412,-0.036,-0.0332,-0.0267,-0.0228,-0.0197,-0.015,-0.0104,-0.0057,-0.0075,-0.0071,-0.0037,0.0054,0.0087,0.01,-0.0033,-0.0032,-0.003,0.0078,0,-0.0537,-0.0574,-0.0554,-0.0577,-0.0591,-0.0544,-0.0532,-0.0493,-0.0446,-0.0404,-0.0328,-0.0286,-0.0246,-0.0222,-0.0169,-0.0082,-0.0035,-0.0088,0.0057,0.0061,0.0087,0.0111,0.0078,0.0174,0.0087,0.0089,0.009,0,-0.058,-0.0599,-0.0637,-0.064,-0.0639,-0.064,-0.0607,-0.0589,-0.0512,-0.0473,-0.0407,-0.0343,-0.0262,-0.0233,-0.0086,-0.0122,-0.0044,0.0023,0.0029,0.0085,0.0111,0.0165,0.0193,0.0105,0.0104,0.0103,0.0102,0,-0.0632,-0.0654,-0.069,-0.0691,-0.0684,-0.0685,-0.0672,-0.0612,-0.0593,-0.0513,-0.0482,-0.0376,-0.0317,-0.0206,-0.0063,-0.0075,0.0101,0.0106,0.021,0.0213,0.0227,0.0229,0.0203,0.0203,0.0203,0.0203,0.0202,0,-0.0684,-0.071,-0.072,-0.0741,-0.0774,-0.0742,-0.0749,-0.0715,-0.0657,-0.063,-0.0524,-0.047,-0.0308,-0.0185,-0.0067,0.0108,0.0104,0.0215,0.0249,0.0207,0.0206,0.0179,0.0174,0.0207,0.0206,0.0205,0.0204,0,-0.0736,-0.0742,-0.0786,-0.0798,-0.0804,-0.0827,-0.0816,-0.0813,-0.0747,-0.0706,-0.0683,-0.0533,-0.0364,-0.0192,0.0006,0.0108,0.0266,0.0324,0.0263,0.0288,0.034,0.0332,0.0449,0.0451,0.0453,0.0455,0.0456,0,-0.0766,-0.0796,-0.0839,-0.087,-0.0881,-0.0904,-0.0917,-0.0869,-0.0855,-0.0738,-0.0719,-0.0548,-0.0412,-0.01,0.011,0.0335,0.0329,0.0425,0.04,0.0347,0.0368,0.0356,0.0346,0.0396,0.0396,0.0397,0.0398,0,-0.0821,-0.0837,-0.0873,-0.0945,-0.0977,-0.1007,-0.1014,-0.1017,-0.0944,-0.0883,-0.0763,-0.0643,-0.0333,-0.0079,0.0215,0.0339,0.0387,0.0445,0.0424,0.0335,0.0305,0.0323,0.0313,0.0403,0.0402,0.0402,0.0401,0.0401,-0.0854,-0.0898,-0.095,-0.1014,-0.1056,-0.1094,-0.111,-0.1089,-0.1054,-0.0941,-0.0816,-0.0612,-0.0357,0.0061,0.0276,0.0472,0.0465,0.0503,0.0498,0.0493,0.0464,0.0439,0.0556,0.0556,0.0556,0.0557,0.0557,0,-0.0893,-0.0944,-0.1014,-0.1086,-0.1142,-0.1145,-0.116,-0.1142,-0.1094,-0.0963,-0.0821,-0.0533,-0.0234,0.0035,0.0349,0.0536,0.0513,0.0562,0.0489,0.0484,0.0479,0.0446,0.0534,0.0535,0.0535,0.0536,0,0,-0.0914,-0.0991,-0.1032,-0.1138,-0.1187,-0.1228,-0.1233,-0.1178,-0.1082,-0.094,-0.0786,-0.0573,-0.0239,-0.0026,0.0218,0.0385,0.0382,0.04,0.0398,0.0277,0.027,0.0427,0.0368,0,0,0,0,0]}],[{"header":{"parameterUnit":"m.s-1","parameterCategory":2,"la1":30.2991,"la2":30.254,"lo1":-89.0895,"lo2":-89.0444,"dy":0.0017,"dx":0.0017,"nx":28,"ny":28,"refTime":"2025-01-09T09:00:00:Z","depth":"4","parameterNumber":2,"parameterNumberName":"U-component_of_CURRENTS"},"data":[0,0,0,0,0,0,0,0,0,0,0,0,0,0,0,0,0,0,0,0,0,0,0,0,0,0,0,0,0,0,0,0,0,0,0,0,0,0,0,0,0,0,0,0,0,0,0,0,0,0,0,0,0,0,0,0,0,0,-0.1534,-0.1535,0,-0.1595,-0.1595,-0.1596,-0.1627,-0.1627,-0.1627,-0.1628,-0.1671,-0.1672,-0.1673,0,0,0,0,0,0,0,0,0,0,0,0,0,-0.1445,-0.1446,-0.1534,-0.1535,-0.1536,-0.1595,-0.1596,-0.1596,-0.1627,-0.1627,-0.1628,-0.1628,-0.1671,-0.1672,-0.1673,0,0,0,0,0,0,0,0,0,0,0,0,0,-0.1491,-0.1447,-0.1534,-0.156,-0.1563,-0.1595,-0.1596,-0.1596,-0.1627,-0.1627,-0.1628,-0.1628,-0.167,-0.1672,-0.1673,-0.1677,0,0,-0.1678,-0.1678,0,0,0,0,0,0,0,0,-0.1488,-0.1494,-0.1555,-0.1558,-0.1562,-0.1605,-0.158,-0.1623,-0.1627,-0.1601,-0.1628,-0.1628,-0.1648,-0.1652,-0.166,-0.1679,-0.168,-0.1678,-0.1679,-0.1679,-0.168,0,0,0,0,0,0,0,-0.1485,-0.1491,-0.1557,-0.1556,-0.156,-0.1568,-0.1575,-0.1588,-0.1621,-0.1603,-0.1606,-0.1615,-0.165,-0.1659,-0.1661,-0.1681,-0.1678,-0.1679,-0.168,-0.168,-0.1765,-0.1767,0,0,0,0,0,0,-0.1481,-0.1489,-0.1555,-0.1559,-0.1527,-0.157,-0.1577,-0.159,-0.1621,-0.1627,-0.1615,-0.1617,-0.1656,-0.166,-0.1663,-0.1729,-0.1679,-0.1681,-0.1681,-0.1764,-0.1766,-0.1767,0,0,0,0,0,0,-0.1479,-0.1486,-0.1552,-0.1526,-0.1535,-0.1571,-0.1585,-0.1591,-0.1624,-0.163,-0.1636,-0.1646,-0.1656,-0.1661,-0.1699,-0.1728,-0.1681,-0.1683,-0.1762,-0.1764,-0.1766,-0.1822,0,0,0,0,0,0,-0.1476,-0.1485,-0.1505,-0.1526,-0.1537,-0.1589,-0.1585,-0.1592,-0.1629,-0.1632,-0.1658,-0.1661,-0.1657,-0.1697,-0.17,-0.1729,-0.1684,-0.1761,-0.1763,-0.1766,-0.1818,-0.1825,-0.1832,0,0,0,0,0,-0.1473,-0.1495,-0.1505,-0.1514,-0.1558,-0.159,-0.1597,-0.1622,-0.163,-0.1652,-0.167,-0.1661,-0.1715,-0.1699,-0.1703,-0.1733,-0.1759,-0.1762,-0.1765,-0.1815,-0.1824,-0.1831,0,0,0,0,0,0,-0.1468,-0.1501,-0.1512,-0.1545,-0.1574,-0.1597,-0.1623,-0.1637,-0.1669,-0.1679,-0.168,-0.1685,-0.1729,-0.1724,-0.1707,-0.1765,-0.1735,-0.1739,-0.1772,-0.178,-0.1787,-0.1783,-0.1685,0,0,0,0,0,-0.1476,-0.1502,-0.1531,-0.156,-0.1577,-0.1605,-0.1626,-0.1644,-0.1669,-0.1685,-0.1703,-0.1722,-0.174,-0.1756,-0.1771,-0.1804,-0.1786,-0.1826,-0.1833,-0.1838,-0.1838,-0.1837,-0.1843,-0.1777,-0.1777,-0.1777,0,0,-0.1483,-0.1504,-0.1521,-0.1561,-0.1586,-0.1619,-0.1619,-0.166,-0.1692,-0.1684,-0.1739,-0.1749,-0.1755,-0.1793,-0.1812,-0.1797,-0.1848,-0.1842,-0.1847,-0.1844,-0.1841,-0.1847,-0.1853,-0.1779,-0.1779,-0.1779,0,0,-0.1501,-0.1531,-0.1557,-0.1585,-0.1629,-0.1647,-0.1665,-0.1705,-0.173,-0.1777,-0.1779,-0.1808,-0.1843,-0.185,-0.1857,-0.191,-0.1884,-0.192,-0.1953,-0.1952,-0.1957,-0.1961,-0.1945,-0.1947,-0.1923,-0.1924,-0.1924,0,-0.1511,-0.1544,-0.1571,-0.1603,-0.1631,-0.1663,-0.1698,-0.1729,-0.1778,-0.1799,-0.1804,-0.1857,-0.1867,-0.19,-0.1922,-0.1925,-0.1914,-0.1921,-0.196,-0.1964,-0.1967,-0.1949,-0.1951,-0.1927,-0.1926,-0.1926,-0.1926,0,-0.1539,-0.1578,-0.1599,-0.1648,-0.1683,-0.172,-0.1763,-0.1804,-0.1837,-0.186,-0.1912,-0.1926,-0.1952,-0.1965,-0.1963,-0.1997,-0.1979,-0.1968,-0.1936,-0.1977,-0.1956,-0.1956,-0.1931,-0.193,-0.1929,-0.1928,0,0,-0.1523,-0.1602,-0.1612,-0.1643,-0.1711,-0.1737,-0.1799,-0.1851,-0.1887,-0.1935,-0.1973,-0.2013,-0.2019,-0.2027,-0.2029,-0.2035,-0.2054,-0.2019,-0.2017,-0.1997,-0.2044,-0.1915,-0.1903,-0.2051,-0.2052,-0.2052,-0.2019,0,-0.1537,-0.1598,-0.1639,-0.1703,-0.1737,-0.179,-0.184,-0.1894,-0.1938,-0.1984,-0.2006,-0.2044,-0.2043,-0.2059,-0.2069,-0.206,-0.2059,-0.2063,-0.2012,-0.201,-0.1886,-0.1901,-0.2054,-0.2019,-0.2019,-0.2019,-0.2019,0,-0.1542,-0.1584,-0.1648,-0.1727,-0.1748,-0.1796,-0.1873,-0.1923,-0.1991,-0.2023,-0.2063,-0.208,-0.2111,-0.2097,-0.2099,-0.2104,-0.2081,-0.2065,-0.2063,-0.1922,-0.1883,-0.1971,-0.202,-0.202,-0.202,-0.202,-0.202,0,-0.1496,-0.1586,-0.1636,-0.1665,-0.176,-0.1805,-0.1859,-0.1936,-0.1974,-0.2047,-0.2072,-0.2112,-0.2126,-0.212,-0.2099,-0.2105,-0.208,-0.2077,-0.1935,-0.1926,-0.2028,-0.2024,-0.2065,-0.2065,-0.2065,-0.2065,-0.2065,0,-0.1473,-0.1516,-0.1624,-0.1649,-0.1709,-0.179,-0.1854,-0.1911,-0.1987,-0.2011,-0.2087,-0.2093,-0.2134,-0.2126,-0.2105,-0.2012,-0.2081,-0.1934,-0.1906,-0.2052,-0.2051,-0.2028,-0.2024,-0.2064,-0.2064,-0.2064,-0.2064,0,-0.1403,-0.1479,-0.1539,-0.165,-0.1688,-0.173,-0.1839,-0.187,-0.1963,-0.1995,-0.2017,-0.2083,-0.2066,-0.208,-0.2058,-0.1994,-0.1936,-0.1884,-0.2031,-0.2014,-0.1784,-0.1784,-0.1722,-0.1717,-0.1713,-0.171,-0.1707,0,-0.1367,-0.1394,-0.1517,-0.1549,-0.1603,-0.1682,-0.1722,-0.1836,-0.186,-0.1958,-0.1946,-0.1982,-0.2002,-0.1865,-0.1905,-0.1846,-0.1823,-0.1783,-0.1791,-0.1767,-0.1748,-0.1755,-0.176,-0.17,-0.1699,-0.1698,-0.1697,0,-0.1289,-0.1347,-0.1393,-0.1459,-0.1515,-0.1565,-0.1634,-0.1639,-0.1745,-0.185,-0.1815,-0.1802,-0.1779,-0.1762,-0.1725,-0.1687,-0.1809,-0.174,-0.1749,-0.1756,-0.174,-0.1727,-0.1737,-0.1683,-0.1685,-0.1686,-0.1687,0,-0.1224,-0.1235,-0.1301,-0.1341,-0.1406,-0.1413,-0.1475,-0.1494,-0.1536,-0.1649,-0.1628,-0.1674,-0.1745,-0.1677,-0.1645,-0.1598,-0.1577,-0.1525,-0.1545,-0.1561,-0.1525,-0.1483,-0.1313,0,0,0,0,0,-0.1148,-0.1141,-0.1173,-0.1209,-0.1266,-0.1299,-0.1389,-0.1453,-0.1559,-0.1484,-0.1553,-0.1523,-0.1486,-0.152,-0.1435,-0.1575,-0.1585,-0.1471,-0.1537,-0.1603,-0.162,-0.1593,0,0,0,0,0,0,-0.1096,-0.112,-0.1126,-0.108,-0.1076,-0.1119,-0.1169,-0.125,-0.1224,-0.134,-0.1326,-0.142,-0.1406,-0.1496,-0.1397,-0.1406,-0.1413,-0.1514,-0.151,-0.1594,-0.1609,-0.1622,-0.1601,0,0,0,0,0]},{"header":{"parameterUnit":"m.s-1","parameterCategory":2,"la1":30.2991,"la2":30.254,"lo1":-89.0895,"lo2":-89.0444,"dy":0.0017,"dx":0.0017,"nx":28,"ny":28,"refTime":"2025-01-09T09:00:00:Z","depth":"4","parameterNumber":3,"parameterNumberName":"V-component_of_CURRENTS"},"data":[0,0,0,0,0,0,0,0,0,0,0,0,0,0,0,0,0,0,0,0,0,0,0,0,0,0,0,0,0,0,0,0,0,0,0,0,0,0,0,0,0,0,0,0,0,0,0,0,0,0,0,0,0,0,0,0,0,0,-0.02,-0.02,0,-0.0156,-0.0156,-0.0155,-0.0128,-0.0128,-0.0128,-0.0128,-0.0059,-0.0058,-0.0056,0,0,0,0,0,0,0,0,0,0,0,0,0,-0.0226,-0.0226,-0.02,-0.02,-0.0199,-0.0156,-0.0156,-0.0155,-0.0128,-0.0128,-0.0128,-0.0128,-0.006,-0.0058,-0.0056,0,0,0,0,0,0,0,0,0,0,0,0,0,-0.0201,-0.0226,-0.02,-0.0181,-0.0179,-0.0157,-0.0156,-0.0155,-0.0128,-0.0128,-0.0128,-0.0128,-0.0061,-0.0058,-0.0055,-0.0041,0,0,-0.0047,-0.0046,0,0,0,0,0,0,0,0,-0.0202,-0.02,-0.0185,-0.0183,-0.018,-0.0148,-0.014,-0.0116,-0.0128,-0.0147,-0.0128,-0.0128,-0.0087,-0.0083,-0.0074,-0.0038,-0.0035,-0.0047,-0.0046,-0.0044,-0.0044,0,0,0,0,0,0,0,-0.0204,-0.0202,-0.0182,-0.0184,-0.0181,-0.0163,-0.016,-0.0135,-0.0117,-0.0145,-0.0143,-0.014,-0.0086,-0.0076,-0.0072,-0.0034,-0.0047,-0.0045,-0.0043,-0.0042,0.002,0.002,0,0,0,0,0,0,-0.0213,-0.0203,-0.0184,-0.0181,-0.0192,-0.0163,-0.0159,-0.0158,-0.0118,-0.0112,-0.014,-0.0139,-0.0081,-0.0075,-0.0069,-0.0052,-0.0044,-0.0042,-0.004,0.002,0.002,0.002,0,0,0,0,0,0,-0.0214,-0.0212,-0.0185,-0.0191,-0.0187,-0.0163,-0.0162,-0.0157,-0.0151,-0.0114,-0.0108,-0.0139,-0.0081,-0.0073,-0.005,-0.0049,-0.0041,-0.0038,0.002,0.002,0.002,-0.0017,0,0,0,0,0,0,-0.0215,-0.0213,-0.0217,-0.0192,-0.0187,-0.0178,-0.0162,-0.0157,-0.0149,-0.0147,-0.0111,-0.0104,-0.008,-0.0054,-0.0047,-0.0046,-0.0036,0.002,0.002,0.002,-0.0016,-0.0018,-0.002,0,0,0,0,0,-0.0216,-0.0223,-0.0218,-0.0215,-0.0194,-0.0178,-0.0174,-0.0155,-0.0149,-0.0149,-0.0123,-0.0106,-0.0048,-0.0052,-0.0044,-0.0041,0.002,0.002,0.002,-0.0015,-0.0017,-0.002,0,0,0,0,0,0,-0.0236,-0.022,-0.0214,-0.0216,-0.0201,-0.0174,-0.0173,-0.016,-0.014,-0.0139,-0.0104,-0.0096,-0.0076,-0.0053,-0.0058,-0.0023,-0.0011,-0.001,-0.0041,-0.0043,-0.0045,-0.0055,-0.0034,0,0,0,0,0,-0.0243,-0.0245,-0.0225,-0.0227,-0.0222,-0.0199,-0.0192,-0.018,-0.0158,-0.0149,-0.0123,-0.0094,-0.0068,-0.0053,-0.0028,-0.0008,0.0018,-0.0001,-0.0003,-0.0005,-0.0007,0.0036,0.0038,0.0021,0.0021,0.0021,0,0,-0.0252,-0.0244,-0.0245,-0.0232,-0.022,-0.0217,-0.0194,-0.0188,-0.0183,-0.0144,-0.0131,-0.0103,-0.0065,-0.0044,-0.0033,-0.0025,0.0012,-0.0005,-0.0007,-0.0008,0.0036,0.0038,0.004,0.0021,0.0021,0.0021,0,0,-0.0272,-0.0263,-0.0273,-0.0263,-0.025,-0.0234,-0.0235,-0.0211,-0.0198,-0.0182,-0.0152,-0.0123,-0.0088,-0.0056,-0.0036,-0.0035,-0.0003,-0.0029,-0.0043,-0.0001,0.0,0.0002,0.0031,0.0036,-0.0027,-0.0027,-0.0027,0,-0.0284,-0.0293,-0.0273,-0.0278,-0.0276,-0.0246,-0.0255,-0.0234,-0.0205,-0.0194,-0.0184,-0.0123,-0.0092,-0.0056,-0.0055,-0.0039,-0.0016,-0.0038,-0.0004,-0.0002,0.0001,0.003,0.0036,-0.0029,-0.0029,-0.0028,-0.0028,0,-0.0308,-0.0318,-0.0322,-0.032,-0.0313,-0.0316,-0.0288,-0.0276,-0.0258,-0.0233,-0.0199,-0.0151,-0.0115,-0.0098,-0.0075,-0.0041,-0.0031,-0.0015,0.0,0.0,0.0031,0.0038,-0.0031,-0.0031,-0.003,-0.003,0,0,-0.0334,-0.0341,-0.0344,-0.0357,-0.0338,-0.0338,-0.0325,-0.0306,-0.0301,-0.0258,-0.0243,-0.0186,-0.0157,-0.0133,-0.0094,-0.0053,-0.0015,-0.0031,-0.0028,-0.0006,0.0069,0.006,0.0067,0.0007,0.0008,0.0009,0.0081,0,-0.0363,-0.0395,-0.0382,-0.0408,-0.0422,-0.0392,-0.0385,-0.036,-0.0329,-0.0303,-0.0239,-0.0211,-0.017,-0.0154,-0.0105,-0.0038,0.0002,-0.0037,0.007,0.0073,0.0061,0.0074,0.0013,0.0087,0.0088,0.0089,0.009,0,-0.0392,-0.0412,-0.0448,-0.0463,-0.0466,-0.0473,-0.0461,-0.045,-0.0396,-0.037,-0.0317,-0.0267,-0.0197,-0.0168,-0.0046,-0.0073,-0.0009,0.0046,0.0051,0.0059,0.0076,0.009,0.0103,0.0102,0.0101,0.01,0.0099,0,-0.043,-0.0457,-0.0493,-0.0498,-0.0505,-0.0514,-0.0513,-0.0475,-0.0469,-0.0411,-0.0396,-0.0303,-0.026,-0.016,-0.0042,-0.0044,0.009,0.0103,0.0156,0.0156,0.0158,0.0156,0.0185,0.0185,0.0184,0.0184,0.0184,0,-0.0463,-0.0494,-0.052,-0.0541,-0.0584,-0.0566,-0.0591,-0.057,-0.0536,-0.0528,-0.0438,-0.0404,-0.0256,-0.0159,-0.0053,0.0072,0.0085,0.0155,0.0177,0.014,0.0135,0.0163,0.0159,0.0187,0.0186,0.0186,0.0185,0,-0.0496,-0.0512,-0.0562,-0.0592,-0.0607,-0.0638,-0.0656,-0.0664,-0.0624,-0.0609,-0.0593,-0.0475,-0.0344,-0.0195,-0.0028,0.005,0.0174,0.0213,0.0156,0.0174,0.0213,0.0206,0.0277,0.0277,0.0277,0.0278,0.0278,0,-0.0514,-0.0543,-0.0609,-0.0649,-0.0669,-0.0711,-0.0736,-0.0715,-0.0714,-0.065,-0.0639,-0.0515,-0.0422,-0.0188,-0.0037,0.0165,0.0192,0.0245,0.0237,0.0209,0.0224,0.0217,0.0211,0.0278,0.0278,0.0278,0.0278,0,-0.0548,-0.0576,-0.0618,-0.0703,-0.0752,-0.0798,-0.0825,-0.083,-0.0793,-0.0763,-0.0666,-0.0533,-0.0384,-0.0193,-0.0035,0.0108,0.0206,0.0249,0.0249,0.0242,0.0212,0.0225,0.0218,0.0279,0.0279,0.0279,0.0279,0,-0.0571,-0.0613,-0.0676,-0.0745,-0.0814,-0.0858,-0.0871,-0.0852,-0.084,-0.0754,-0.0726,-0.0549,-0.0442,-0.0223,-0.0078,0.0065,0.0098,0.0131,0.0138,0.0139,0.0078,0.0019,0.0048,0,0,0,0,0,-0.0586,-0.0638,-0.0711,-0.0787,-0.0855,-0.0888,-0.0915,-0.0909,-0.0875,-0.0813,-0.0763,-0.0617,-0.0381,-0.0273,-0.013,-0.0085,0.0109,0.0083,0.0147,0.0285,0.0284,0.0236,0,0,0,0,0,0,-0.06,-0.0672,-0.0712,-0.0802,-0.0856,-0.0921,-0.0937,-0.0916,-0.0865,-0.0811,-0.0678,-0.0599,-0.0363,-0.046,-0.0132,-0.0088,-0.0033,0.0201,0.0204,0.0286,0.0285,0.0284,0.0234,0,0,0,0,0]}]]